Location: Hilton Head Island
(32.2163°N, 80.7526°W)
Time: 22:21:36
(UTC-04:00)

Vanguard 1 - Pass Details

Date: 24 February 2026
Orbit: 653 x 3818 km, 34.2° (Epoch: 13 March)

Event Time Altitude Azimuth Distance (km) Brightness Sun altitude
Rises 11:56:06 0° 211° (SSW) 3,176 13.1 47.4°
Reaches altitude 10° 11:58:26 10° 199° (SSW) 2,432 12.8 47.5°
Maximum altitude 12:03:18 29° 139° (SE) 1,856 12.8 47.8°
Drops below altitude 10° 12:10:40 10° 83° (E) 3,788 13.2 48.1°
Sets 12:15:19 0° 74° (ENE) 5,341 13.8 48.2°
